Simultaneous Nadir Overpasses (SNOs) Predictions

Prediction of SNOs between AQUA and GOES-15 Satellite Orbit:

Table of predicted SNOs for the next 14.0 days since TLE Epoch: 9/28/2013
Index Date Time (AQUA) AQUA Lat,Lon GOES-15 Lat,Lon Distance(km) Time Diff (sec)
1 09/29/2013 22:22:59 0.40,-131.92 -0.30,-135.34 387.70 80
2 09/30/2013 10:44:16 0.62,-137.10 0.28,-135.38 194.03 80
3 10/02/2013 10:32:04 0.01,-134.13 0.28,-135.35 138.12 80
4 10/02/2013 22:53:28 -1.11,-139.32 -0.25,-135.27 460.50 80
5 10/04/2013 10:19:52 -0.61,-131.17 0.28,-135.30 469.87 80
6 10/04/2013 22:41:16 -0.48,-136.37 -0.26,-135.23 128.80 80
7 10/06/2013 22:29:03 0.10,-133.40 -0.26,-135.18 202.14 80
8 10/07/2013 10:50:18 0.96,-138.56 0.23,-135.23 379.47 80
9 10/09/2013 10:38:05 0.35,-135.59 0.24,-135.16 49.70 80
10 10/11/2013 10:25:53 -0.27,-132.63 0.24,-135.09 279.45 80
11 10/11/2013 22:47:16 -0.81,-137.82 -0.21,-135.01 320.52 80




NCC Satellite Simultaneous Nadir Overpasses (SNOs) Prediction Service
